[[{"header":{"parameterUnit":"m.s-1","parameterCategory":1,"la1":30.2991,"la2":30.254,"lo1":-89.0895,"lo2":-89.0444,"dy":0.0017,"dx":0.0017,"nx":28,"ny":28,"refTime":"2025-03-12T09:00:00:Z","depth":0,"parameterNumber":2,"parameterNumberName":"U-component_of_WINDS"},"data":[0,0,0,0,0,0,0,0,0,0,0,0,0,0,0,0,0,0,0,0,0,0,0,0,0,0,0,0,0,0,0,0,0,0,0,0,0,0,0,0,0,0,0,0,0,0,0,0,0,0,0,0,0,0,0,0,0,0,0.4994,0.4994,0,0.5007,0.5007,0.5007,0.501,0.5009,0.5009,0.5009,0.5023,0.5024,0.5024,0,0,0,0,0,0,0,0,0,0,0,0,0,0.4974,0.4974,0.4994,0.4995,0.4995,0.5007,0.5007,0.5007,0.501,0.5009,0.5009,0.5009,0.5023,0.5024,0.5024,0,0,0,0,0,0,0,0,0,0,0,0,0,0.4984,0.4975,0.4994,0.4997,0.4998,0.5007,0.5007,0.5007,0.501,0.5009,0.5009,0.5009,0.5023,0.5024,0.5024,0.5032,0,0,0.5026,0.5027,0,0,0,0,0,0,0,0,0.4984,0.4985,0.4997,0.4997,0.4998,0.5007,0.5005,0.5016,0.501,0.5005,0.5009,0.5009,0.5018,0.5019,0.5022,0.5032,0.5033,0.5027,0.5027,0.5027,0.5027,0,0,0,0,0,0,0,0.4983,0.4985,0.4999,0.4997,0.4997,0.4999,0.5,0.5007,0.5012,0.5006,0.5006,0.5007,0.5018,0.5021,0.5022,0.5033,0.5027,0.5027,0.5028,0.5028,0.5052,0.5052,0,0,0,0,0,0,0.4982,0.4984,0.4999,0.5,0.499,0.4999,0.5001,0.5004,0.5012,0.5013,0.5007,0.5007,0.502,0.5021,0.5023,0.5032,0.5027,0.5028,0.5028,0.5052,0.5052,0.5052,0,0,0,0,0,0,0.4981,0.4983,0.4998,0.4992,0.4994,0.5,0.5003,0.5004,0.5007,0.5013,0.5015,0.5009,0.502,0.5022,0.503,0.5033,0.5028,0.5029,0.5051,0.5052,0.5052,0.5051,0,0,0,0,0,0,0.4981,0.4983,0.4985,0.4992,0.4994,0.5005,0.5003,0.5005,0.5008,0.5008,0.5016,0.5017,0.502,0.5029,0.503,0.5034,0.5029,0.5051,0.5052,0.5052,0.5051,0.5052,0.5052,0,0,0,0,0,0.498,0.4985,0.4985,0.4987,0.4997,0.5005,0.5006,0.5009,0.5008,0.5011,0.5016,0.5016,0.5032,0.5029,0.5031,0.5035,0.5051,0.5051,0.5052,0.5051,0.5052,0.5052,0,0,0,0,0,0,0.4978,0.4985,0.4986,0.4993,0.4998,0.5005,0.5009,0.501,0.5016,0.5016,0.502,0.5022,0.5029,0.5033,0.503,0.5043,0.5042,0.5043,0.504,0.5041,0.5041,0.504,0.503,0,0,0,0,0,0.4978,0.4983,0.499,0.4995,0.4998,0.5003,0.5006,0.5008,0.5014,0.5016,0.5021,0.5027,0.5034,0.5038,0.5044,0.5052,0.5054,0.5056,0.5056,0.5057,0.5057,0.5063,0.5064,0.5054,0.5054,0.5054,0,0,0.4979,0.4984,0.4987,0.4995,0.4999,0.5005,0.5005,0.501,0.5015,0.5017,0.5025,0.5029,0.5036,0.5044,0.5048,0.5048,0.5061,0.5057,0.5057,0.5058,0.5063,0.5064,0.5065,0.5054,0.5054,0.5054,0,0,0.4984,0.4988,0.4993,0.4997,0.5004,0.5007,0.5008,0.5015,0.5018,0.5026,0.5028,0.5034,0.5045,0.505,0.5054,0.5061,0.5063,0.5063,0.5065,0.5071,0.5072,0.5072,0.5075,0.5076,0.5064,0.5064,0.5064,0,0.4984,0.4992,0.4995,0.5001,0.5005,0.5008,0.5013,0.5018,0.5026,0.5029,0.5028,0.5042,0.5047,0.5057,0.5059,0.5062,0.5064,0.5062,0.5071,0.5072,0.5073,0.5076,0.5077,0.5064,0.5064,0.5064,0.5064,0,0.4992,0.4998,0.5001,0.5009,0.5013,0.5019,0.5024,0.5029,0.5031,0.5035,0.5043,0.5049,0.5057,0.506,0.5062,0.507,0.507,0.507,0.5069,0.5074,0.5076,0.5078,0.5064,0.5064,0.5064,0.5064,0,0,0.4995,0.5005,0.5006,0.501,0.5018,0.5023,0.5029,0.5036,0.504,0.5046,0.5052,0.5062,0.5062,0.5067,0.507,0.5075,0.5081,0.5074,0.5075,0.5075,0.5091,0.5091,0.5092,0.5082,0.5082,0.5083,0.5091,0,0.5,0.5011,0.5014,0.5024,0.5029,0.5033,0.5038,0.5044,0.5048,0.5054,0.5059,0.5066,0.5066,0.5069,0.5074,0.5079,0.5084,0.5079,0.5088,0.5088,0.5086,0.5093,0.5093,0.51,0.5092,0.5092,0.5092,0,0.5007,0.5013,0.5023,0.503,0.5033,0.5038,0.5046,0.5051,0.5058,0.5061,0.5067,0.507,0.5077,0.5076,0.5087,0.5083,0.5088,0.5091,0.5092,0.5092,0.509,0.5094,0.5103,0.5104,0.5094,0.5094,0.5094,0,0.5008,0.5019,0.5026,0.5029,0.5038,0.5042,0.5046,0.5053,0.5058,0.5065,0.5068,0.5076,0.508,0.5087,0.5092,0.5091,0.5103,0.5102,0.5106,0.5106,0.5108,0.5108,0.5117,0.5112,0.5112,0.5111,0.5111,0,0.5013,0.5019,0.5027,0.5031,0.5038,0.5043,0.505,0.5055,0.5061,0.5067,0.5071,0.5076,0.5083,0.509,0.5095,0.5104,0.5106,0.5109,0.511,0.5108,0.5108,0.5111,0.511,0.5112,0.5112,0.5112,0.5112,0,0.5015,0.5021,0.5029,0.5037,0.5039,0.5044,0.5052,0.5057,0.5061,0.5069,0.5071,0.5079,0.5087,0.5093,0.5104,0.5107,0.5117,0.5118,0.5114,0.5115,0.5119,0.5118,0.513,0.5132,0.5125,0.5125,0.5125,0,0.5018,0.5023,0.5032,0.5036,0.504,0.5046,0.5051,0.5057,0.5062,0.5071,0.5075,0.5083,0.509,0.5104,0.5111,0.512,0.5121,0.5125,0.5123,0.5121,0.5122,0.5121,0.5122,0.5125,0.5125,0.5125,0.5125,0,0.5023,0.5025,0.5032,0.5039,0.5045,0.5051,0.5057,0.5061,0.5068,0.5073,0.5082,0.5087,0.5099,0.5107,0.5117,0.5122,0.5125,0.5126,0.5127,0.5126,0.5123,0.5125,0.5115,0.5125,0.5125,0.5125,0.5125,0.5125,0.5026,0.503,0.5037,0.5044,0.505,0.5056,0.5061,0.5066,0.5073,0.5083,0.5086,0.5095,0.5103,0.5116,0.5122,0.513,0.513,0.5132,0.5132,0.5133,0.5133,0.5122,0.5131,0.5131,0.5131,0.5131,0.5131,0,0.5031,0.5035,0.5042,0.5051,0.5057,0.5059,0.5066,0.5071,0.5079,0.5086,0.5093,0.5103,0.5112,0.512,0.513,0.5135,0.5136,0.5137,0.5136,0.5138,0.5132,0.513,0.5135,0.5135,0.5135,0.5135,0.5135,0.5135,0.5034,0.5041,0.5045,0.5056,0.5061,0.5069,0.5073,0.5079,0.5085,0.5096,0.5104,0.5109,0.5117,0.5127,0.5136,0.5138,0.5141,0.5142,0.5144,0.5139,0.5138,0.5138,0.5136,0.5142,0.5142,0.515,0.515,0.515]},{"header":{"parameterUnit":"m.s-1","parameterCategory":1,"la1":30.2991,"la2":30.254,"lo1":-89.0895,"lo2":-89.0444,"dy":0.0017,"dx":0.0017,"nx":28,"ny":28,"refTime":"2025-03-12T09:00:00:Z","depth":0,"parameterNumber":3,"parameterNumberName":"V-component_of_WINDS"},"data":[0,0,0,0,0,0,0,0,0,0,0,0,0,0,0,0,0,0,0,0,0,0,0,0,0,0,0,0,0,0,0,0,0,0,0,0,0,0,0,0,0,0,0,0,0,0,0,0,0,0,0,0,0,0,0,0,0,0,3.4613,3.4612,0,3.4525,3.4524,3.4523,3.4414,3.4412,3.4411,3.4409,3.432,3.4319,3.4318,0,0,0,0,0,0,0,0,0,0,0,0,0,3.4687,3.4686,3.4613,3.4612,3.4611,3.4525,3.4524,3.4523,3.4414,3.4412,3.441,3.4408,3.432,3.4319,3.4318,0,0,0,0,0,0,0,0,0,0,0,0,0,3.4633,3.4686,3.4613,3.4546,3.4539,3.4526,3.4524,3.4523,3.4415,3.4412,3.441,3.4407,3.432,3.4319,3.4318,3.4363,0,0,3.4315,3.4314,0,0,0,0,0,0,0,0,3.4636,3.463,3.4557,3.4551,3.4543,3.4478,3.4518,3.4469,3.4416,3.4462,3.4409,3.4406,3.4375,3.4369,3.4358,3.4359,3.4355,3.4314,3.4314,3.4313,3.4313,0,0,0,0,0,0,0,3.464,3.4633,3.4578,3.4556,3.4548,3.4521,3.451,3.4508,3.4434,3.4458,3.445,3.4441,3.437,3.4359,3.4355,3.4354,3.4314,3.4313,3.4313,3.4312,3.4388,3.4391,0,0,0,0,0,0,3.4654,3.4637,3.4581,3.4575,3.4584,3.4522,3.451,3.4502,3.4434,3.4421,3.4443,3.4436,3.4363,3.4357,3.4352,3.44,3.4313,3.4312,3.4312,3.4386,3.4389,3.4392,0,0,0,0,0,0,3.4656,3.465,3.4584,3.4604,3.4594,3.4523,3.4515,3.4501,3.449,3.4423,3.4409,3.4446,3.436,3.4353,3.4361,3.4395,3.4312,3.4311,3.4382,3.4387,3.439,3.4497,0,0,0,0,0,0,3.4658,3.4651,3.4667,3.4605,3.4593,3.4595,3.4517,3.4501,3.4488,3.4478,3.4421,3.4409,3.4358,3.4364,3.436,3.4392,3.431,3.4379,3.4384,3.4389,3.449,3.4504,3.4516,0,0,0,0,0,3.4661,3.47,3.4668,3.4662,3.4611,3.4597,3.459,3.453,3.4492,3.4507,3.4464,3.4411,3.4393,3.4365,3.436,3.4393,3.4377,3.4383,3.4389,3.4484,3.4501,3.4516,0,0,0,0,0,0,3.4766,3.4691,3.4654,3.4674,3.4643,3.4579,3.4596,3.455,3.4529,3.4521,3.4447,3.4435,3.4452,3.4423,3.4394,3.4433,3.4377,3.4382,3.4451,3.4467,3.448,3.4486,3.4309,0,0,0,0,0,3.4792,3.4787,3.4721,3.4745,3.4732,3.4667,3.4659,3.4616,3.458,3.4566,3.4524,3.4492,3.4479,3.4471,3.4456,3.4486,3.4472,3.4506,3.4519,3.453,3.4535,3.455,3.4564,3.4412,3.4412,3.4412,0,0,3.4845,3.4803,3.4804,3.4765,3.4736,3.4733,3.4657,3.4656,3.4653,3.4566,3.4571,3.4539,3.4499,3.4519,3.4525,3.4495,3.4575,3.4538,3.4548,3.4546,3.4558,3.4572,3.4585,3.4416,3.4415,3.4415,0,0,3.4938,3.4907,3.4923,3.4896,3.4853,3.481,3.4815,3.4758,3.4734,3.4738,3.4673,3.4669,3.4648,3.4622,3.4606,3.4694,3.4644,3.4691,3.4758,3.4774,3.4786,3.4796,3.4827,3.4839,3.4696,3.4697,3.4697,0,3.5009,3.5001,3.4937,3.4941,3.4926,3.4849,3.4866,3.4843,3.4797,3.4789,3.4756,3.4729,3.4697,3.471,3.4731,3.4721,3.4724,3.4696,3.4789,3.4799,3.4807,3.4836,3.4848,3.4703,3.4702,3.4701,3.4701,0,3.509,3.5085,3.5104,3.5063,3.505,3.5061,3.5,3.4995,3.4954,3.4915,3.4921,3.488,3.4855,3.4855,3.4815,3.4863,3.4846,3.4803,3.4744,3.4829,3.4855,3.4865,3.4711,3.4709,3.4707,3.4706,0,0,3.5244,3.5169,3.5177,3.5158,3.5106,3.5102,3.511,3.5086,3.5083,3.5056,3.506,3.5046,3.5006,3.4988,3.4944,3.4958,3.5031,3.4913,3.4911,3.4936,3.5082,3.5114,3.5127,3.4999,3.5,3.5002,3.5085,0,3.5327,3.5335,3.528,3.5303,3.5299,3.5227,3.5234,3.5204,3.5169,3.5161,3.5122,3.5113,3.5061,3.505,3.506,3.502,3.5059,3.5013,3.5002,3.5002,3.5013,3.5141,3.5174,3.5254,3.5095,3.5096,3.5097,0,3.5424,3.5402,3.5425,3.5374,3.537,3.5378,3.5352,3.5345,3.531,3.5284,3.5266,3.5216,3.5221,3.5168,3.5173,3.5144,3.5137,3.5116,3.5118,3.5113,3.5054,3.5139,3.5278,3.529,3.5113,3.5111,3.511,0,3.5533,3.551,3.5521,3.5507,3.5448,3.5455,3.5431,3.5393,3.5383,3.5361,3.5354,3.5333,3.5322,3.5307,3.5254,3.522,3.5267,3.5208,3.5245,3.5247,3.5256,3.5256,3.5396,3.5254,3.5254,3.5254,3.5254,0,3.563,3.5647,3.5569,3.5576,3.5593,3.5531,3.555,3.5519,3.5487,3.5486,3.5424,3.5426,3.5356,3.535,3.5308,3.532,3.5315,3.5295,3.5283,3.5299,3.5302,3.5292,3.5285,3.5257,3.5256,3.5256,3.5255,0,3.5754,3.5703,3.571,3.5655,3.5641,3.5657,3.5609,3.5614,3.5576,3.5577,3.5574,3.5515,3.5505,3.5451,3.5428,3.54,3.5426,3.5404,3.5438,3.543,3.547,3.5467,3.5607,3.5622,3.5473,3.5474,3.5476,0,3.5819,3.583,3.5777,3.5773,3.5751,3.5745,3.5735,3.5675,3.5667,3.563,3.5639,3.5624,3.5608,3.5596,3.5551,3.5534,3.5511,3.5561,3.5507,3.5524,3.5511,3.551,3.5511,3.5572,3.5574,3.5576,3.5577,0,3.5939,3.5914,3.5901,3.5881,3.5871,3.5852,3.5829,3.5829,3.5763,3.5757,3.5746,3.5735,3.5712,3.5699,3.5674,3.565,3.5603,3.5595,3.5602,3.5618,3.5637,3.5627,3.5468,3.5591,3.559,3.5589,3.5588,3.5587,3.6034,3.6041,3.6006,3.5994,3.5971,3.5952,3.5954,3.5918,3.5908,3.5885,3.5851,3.5845,3.5812,3.5774,3.5754,3.5749,3.5722,3.5733,3.5736,3.5739,3.5747,3.5639,3.5745,3.5744,3.5744,3.5744,3.5743,0,3.615,3.6125,3.6115,3.6086,3.6078,3.6036,3.6009,3.6005,3.6001,3.5974,3.5961,3.5949,3.5937,3.5892,3.5875,3.588,3.5858,3.5877,3.5875,3.5871,3.5773,3.5768,3.5895,3.5895,3.5895,3.5895,3.5895,3.5895,3.621,3.622,3.6191,3.619,3.6164,3.6158,3.6147,3.613,3.6108,3.6098,3.6087,3.6059,3.6026,3.6006,3.5993,3.598,3.5976,3.6003,3.5983,3.5892,3.5878,3.5864,3.5858,3.6003,3.6003,3.6081,3.6082,3.6083]}]]